This demonstration page uses our WeatherBlox Daily Observations layout. Learn more.

Left ArrowRight Arrow

Hourly Observations for November 26, 2016

Temp ( °F °C ) Dew Point ( °F °C ) Humidity (%) Winds ( mph kmh ) Pressure ( in mb ) Visibility ( mi km ) Precip ( " mm )
12:17 am 00:17 Cloudy 46 7.8 44 6.7 93 93 Calm 30.42 1030 10 16 0.00 0.00
12:53 am 00:53 Cloudy 46 7.8 44 6.7 93 93 Calm 30.35 1028 10 16 0.00 0.00
1:53 am 01:53 Cloudy 46 7.8 44 6.7 93 93 Calm 30.34 1027 10 16 0.00 0.00
2:53 am 02:53 Cloudy 46 7.8 44 6.7 93 93 Calm 30.33 1027 10 16 0.00 0.00
3:53 am 03:53 Cloudy 46 7.8 44 6.7 93 93 ESE 3 6 30.33 1027 10 16 0.00 0.00
4:53 am 04:53 Cloudy 46 7.8 45 7.2 96 96 Calm 30.32 1027 7 11 0.00 0.00
5:53 am 05:53 Cloudy with Mist and Fog 46 7.8 45 7.2 96 96 Calm 30.33 1027 4 6 0.00 0.00
6:53 am 06:53 Cloudy with Mist and Fog 46 7.8 46 7.8 100 100 Calm 30.34 1028 5 8 0.00 0.00
7:21 am 07:21 Cloudy with Mist and Fog 46 7.8 46 7.8 100 100 Calm 30.39 1029 4 6 0.00 0.00
7:35 am 07:35 Cloudy with Mist and Fog 46 7.8 46 7.8 100 100 Calm 30.39 1029 3 4 0.00 0.00
7:43 am 07:43 Cloudy with Mist and Fog 46 7.8 46 7.8 100 100 Calm 30.39 1029 3 5 0.00 0.00
7:53 am 07:53 Cloudy with Mist and Fog 46 7.8 46 7.8 100 100 Calm 30.34 1028 3 5 0.00 0.00
8:13 am 08:13 Cloudy with Mist and Fog 46 7.8 46 7.8 100 100 Calm 30.39 1029 3 4 0.00 0.00
8:41 am 08:41 Cloudy with Mist and Fog 46 7.8 46 7.8 100 100 Calm 30.39 1029 2 2 0.00 0.00
8:53 am 08:53 Cloudy with Mist and Fog 46 7.8 46 7.8 100 100 Calm 30.34 1027 3 4 0.00 0.00
9:09 am 09:09 Cloudy with Mist and Fog 47 8.3 46 7.8 97 97 Calm 30.36 1028 5 8 0.00 0.00
9:20 am 09:20 Cloudy with Mist and Fog 46 8 46 8 100 100 Calm 30.39 1029 6 10 0.00 0.00
9:38 am 09:38 Cloudy with Mist and Fog 46 8 46 8 100 100 Calm 30.39 1029 5 8 0.00 0.00
9:49 am 09:49 Cloudy with Mist and Fog 46 8 46 8 100 100 Calm 30.42 1030 5 8 0.00 0.00
9:53 am 09:53 Cloudy with Mist and Fog 47 8.3 46 7.8 97 97 SE 3 6 30.35 1028 3 5 0.00 0.00
10:38 am 10:38 Cloudy with Mist and Fog 46 8 46 8 100 100 Calm 30.39 1029 3 4 0.00 0.00
10:50 am 10:50 Cloudy with Mist and Fog 46 8 46 8 100 100 SSE 3 6 30.39 1029 2 2 0.00 0.00
10:53 am 10:53 Cloudy with Mist and Fog 47 8.3 47 8.3 100 100 SSE 3 6 30.34 1027 2 2 0.00 0.00
11:11 am 11:11 Cloudy with Mist and Fog 48 8.9 47 8.3 96 96 SSE 3 6 30.36 1028 2 3 0.00 0.00
11:30 am 11:30 Cloudy with Mist and Fog 48 9 46 8 94 94 SSE 5 7 30.36 1028 5 8 0.00 0.00
11:48 am 11:48 Cloudy 48 9 46 8 94 94 S 6 9 30.33 1027 7 11 0.00 0.00
11:53 am 11:53 Cloudy 49 9.4 47 8.3 93 93 S 3 6 30.31 1026 7 11 0.00 0.00
12:53 pm 12:53 Cloudy 50 10 48 8.9 93 93 Calm 30.27 1025 9 14 0.00 0.00
1:53 pm 13:53 Cloudy 52 11.1 49 9.4 89 89 S 5 7 30.21 1023 10 16 0.00 0.00
2:53 pm 14:53 Cloudy 52 11.1 49 9.4 89 89 S 8 13 30.18 1022 10 16 0.00 0.00
3:03 pm 15:03 Cloudy 52 11 48 9 88 88 S 8 13 30.18 1022 10 16 0.00 0.00
3:18 pm 15:18 Cloudy 52 11 48 9 88 88 SSE 7 11 30.18 1022 10 16 0.00 0.00
3:53 pm 15:53 Cloudy 53 11.7 49 9.4 86 86 S 8 13 30.15 1021 10 16 0.00 0.00
4:27 pm 16:27 Cloudy 53 11.7 50 10 89 89 SSE 6 9 30.18 1022 10 16 0.00 0.00
4:53 pm 16:53 Cloudy 54 12.2 50 10 87 87 SE 7 11 30.12 1020 10 16 0.00 0.00
5:53 pm 17:53 Cloudy 55 12.8 51 10.6 87 87 SSE 7 11 30.10 1019 10 16 0.00 0.00
6:53 pm 18:53 Cloudy 54 12.2 52 11.1 93 93 SE 14 22 30.09 1019 10 16 0.00 0.00
7:53 pm 19:53 Cloudy 54 12.2 52 11.1 93 93 SE 10 17 30.09 1019 10 16 0.00 0.00
8:53 pm 20:53 Cloudy 54 12.2 52 11.1 93 93 SE 10 17 30.09 1019 10 16 0.00 0.00
9:53 pm 21:53 Cloudy 54 12.2 52 11.1 93 93 SE 17 28 30.07 1018 10 16 0.00 0.00
10:53 pm 22:53 Cloudy 54 12.2 52 11.1 93 93 SE 18 30 30.03 1017 10 16 0.00 0.00
11:53 pm 23:53 Cloudy 54 12.2 52 11.1 93 93 SE 17 28 30.00 1016 10 16 0.00 0.00

Powered by AerisWeather